Regional Weather Roundup
Issued by NWS

Home | Current Version | Previous Version | Graphics & Text | Print | Product List | Glossary On
Versions: 1 2 3 4 5 6 7 8 9 10 11 12 13 14 15 16 17 18 19 20 21 22 23 24 25 26 27 28 29 30 31 32 33 34 35 36 37 38 39 40 41 42 43 44 45 46 47 48 49 50
000
ASUS43 KIND 251459
RWRIN

WEATHER ROUNDUP FOR INDIANA
NATIONAL WEATHER SERVICE INDIANAPOLIS IN
1100 AM EDT SAT APR 25 2015

NOTE: "FAIR" INDICATES FEW OR NO CLOUDS BELOW 12,000 FEET WITH NO
SIGNIFICANT WEATHER AND/OR OBSTRUCTIONS TO VISIBILITY.

* - STATION DOES NOT REPORT WEATHER SUCH AS PRECIPITATION OR FOG.

+ - STATION NOT QUALITY CONTROLLED BY THE NATIONAL WEATHER SERVICE.
    USE DATA WITH CAUTION...ESPECIALLY DEWPOINT AND RELATIVE
    HUMIDITY OBSERVATIONS.

INZ001>003-010>013-019-020-251600-
NORTHWEST INDIANA

CITY           SKY/WX    TMP DP  RH WIND       PRES   REMARKS
GARY /AIRPORT/ LGT RAIN  45  39  81 E15G29    29.77F
KNOX *+        CLOUDY    41  34  75 E15       29.76F

$$

LMZ046-743>745-251600-
SOUTHERN LAKE MICHIGAN

STATION/POSITION TIME  TEMP    WIND        PRES    WAVE
                       AIR SEA DIR/SP/G            HT
                 (UTC) (F)     (DEG/KT/KT) (MB)    (FT)
BURNS HARBOR     1400   44     110/ 15/ 19 1008.8F
MICHIGAN CITY    1400   43     100/ 14/ 19   N/A
5NW MICH CITY    1400   44 44  120/ 14/ 19   N/A     3

$$

INZ004-005-014>016-021>024-251600-
NORTH CENTRAL INDIANA

CITY           SKY/WX    TMP DP  RH WIND       PRES   REMARKS
ELKHART        CLOUDY    45  36  70 E12       29.81
GOSHEN         LGT RAIN  44  38  79 E13       29.81F
SOUTH BEND     LGT RAIN  45  38  76 E8G21     29.81F
WARSAW +       LGT RAIN  43  39  87 E12       29.79F

$$

INZ006>009-017-018-025>027-251600-
NORTHEAST INDIANA

CITY           SKY/WX    TMP DP  RH WIND       PRES   REMARKS
ANGOLA *+      PTSUNNY   43  39  87 E14       29.84R
FORT WAYNE     LGT RAIN  43  39  86 E16       29.81F

$$

INZ028-029-035-036-043>045-051>053-251600-
WEST CENTRAL INDIANA

CITY           SKY/WX    TMP DP  RH WIND       PRES   REMARKS
CRAWFORDSVL +  CLOUDY    46  41  83 E15       29.66F
GREENCASTLE +  LGT RAIN  46  41  81 E12       29.66S
LAFAYETTE      LGT RAIN  46  43  89 E16       29.68F
TERRE HAUTE    LGT RAIN  50  48  93 E12       29.64F FOG

$$

INZ030>032-037>040-046>048-054>057-064-065-251600-
CENTRAL INDIANA

CITY           SKY/WX    TMP DP  RH WIND       PRES   REMARKS
ANDERSON       CLOUDY    48  39  71 E13       29.74F
FRANKFORT +    LGT RAIN  46  46 100 NE13G20   29.71F
GREENWOOD *+   CLOUDY    48  41  76 E9        29.69F
INDIANAPOLIS   LGT RAIN  49  42  77 E13       29.67F
-EAGLE CREEK   LGT RAIN  49  41  74 E14       29.68F
KOKOMO *+      CLOUDY    45  39  81 E17       29.73F
MT COMFORT *+  CLOUDY    48  36  61 E10       29.71F
SHELBYVILLE    RAIN      50  43  77 E13       29.70S

$$

INZ033-034-041-042-049-050-058-059-251600-
EAST CENTRAL INDIANA

CITY           SKY/WX    TMP DP  RH WIND       PRES   REMARKS
MUNCIE         CLOUDY    47  41  80 E17       29.75F

$$

INZ060-061-067>069-081>083-085>088-251600-
SOUTHWEST INDIANA

CITY           SKY/WX    TMP DP  RH WIND       PRES   REMARKS
EVANSVILLE     LGT RAIN  56  54  93 SE6       29.63F FOG
HUNTINGBURG *+ CLOUDY    52  48  87 SE9       29.65F

$$

INZ062-063-066-070>080-084-089>092-251600-
SOUTH CENTRAL AND SOUTHEAST INDIANA

CITY           SKY/WX    TMP DP  RH WIND       PRES   REMARKS
BLOOMINGTON    LGT RAIN  50  47  89 E12       29.66F FOG
MADISON *+     CLOUDY    50  45  81 E8G18     29.72F
SEYMOUR +      LGT RAIN  50  48  93 E13       29.69F

$$




USA.gov is the U.S. government's official web portal to all federal, state and local government web resources and services.